TimeCDT,TemperatureF,Dew PointF,Humidity,Sea Level PressureIn,VisibilityMPH,Wind Direction,Wind SpeedMPH,Gust SpeedMPH,PrecipitationIn,Events,Conditions,WindDirDegrees,DateUTC
12:53 AM,21.0,16.0,81,30.08,10.0,NE,8.1,-,N/A,,Clear,40,2013-03-22 05:53:00
1:53 AM,19.9,14.0,78,30.10,10.0,ENE,4.6,-,N/A,,Clear,60,2013-03-22 06:53:00
2:53 AM,19.0,14.0,81,30.10,10.0,NE,6.9,-,N/A,,Clear,40,2013-03-22 07:53:00
3:53 AM,18.0,12.9,81,30.09,10.0,NE,5.8,-,N/A,,Clear,50,2013-03-22 08:53:00
4:53 AM,17.1,12.0,81,30.09,10.0,NE,4.6,-,N/A,,Clear,40,2013-03-22 09:53:00
5:53 AM,17.1,12.0,81,30.09,10.0,NNE,5.8,-,N/A,,Clear,20,2013-03-22 10:53:00
6:53 AM,16.0,12.0,84,30.09,10.0,NNE,4.6,-,N/A,,Clear,30,2013-03-22 11:53:00
7:53 AM,17.1,12.0,81,30.09,10.0,NE,5.8,-,N/A,,Clear,40,2013-03-22 12:53:00
8:53 AM,21.9,14.0,72,30.09,10.0,ENE,5.8,-,N/A,,Clear,60,2013-03-22 13:53:00
9:53 AM,24.1,14.0,65,30.09,10.0,Variable,3.5,-,N/A,,Clear,0,2013-03-22 14:53:00
10:53 AM,27.0,15.1,61,30.08,10.0,ENE,4.6,-,N/A,,Clear,60,2013-03-22 15:53:00
11:53 AM,28.0,17.1,63,30.07,10.0,Calm,Calm,-,N/A,,Clear,0,2013-03-22 16:53:00
12:53 PM,30.9,18.0,59,30.07,10.0,Calm,Calm,-,N/A,,Clear,0,2013-03-22 17:53:00
1:53 PM,33.1,19.9,59,30.06,10.0,North,3.5,-,N/A,,Clear,350,2013-03-22 18:53:00
2:53 PM,35.1,21.9,59,30.05,10.0,North,4.6,-,N/A,,Clear,360,2013-03-22 19:53:00
3:53 PM,34.0,21.0,59,30.04,10.0,Calm,Calm,-,N/A,,Scattered Clouds,0,2013-03-22 20:53:00
4:53 PM,33.1,21.9,64,30.04,10.0,NNE,8.1,-,N/A,,Scattered Clouds,20,2013-03-22 21:53:00
5:53 PM,32.0,21.0,64,30.04,10.0,NNE,10.4,-,N/A,,Scattered Clouds,20,2013-03-22 22:53:00
6:53 PM,30.0,19.9,66,30.07,10.0,NNE,6.9,-,N/A,,Overcast,20,2013-03-22 23:53:00
7:53 PM,30.0,21.0,69,30.07,10.0,NNE,5.8,-,N/A,,Overcast,30,2013-03-23 00:53:00
8:53 PM,28.9,21.0,72,30.07,10.0,NNE,5.8,-,N/A,,Overcast,20,2013-03-23 01:53:00
9:53 PM,30.0,24.1,79,30.09,10.0,North,5.8,-,N/A,,Overcast,350,2013-03-23 02:53:00
10:53 PM,30.0,23.0,75,30.09,10.0,North,9.2,-,N/A,,Overcast,10,2013-03-23 03:53:00
11:53 PM,28.9,23.0,78,30.11,10.0,North,8.1,-,N/A,,Overcast,10,2013-03-23 04:53:00